Weather in Sabinovo

Russia / Ivanovo Oblast     56°49′26″N   40°56′17″E
temp.,
°C
wind,
m/s
gust,
m/s
humid.,
%
clouds,
%
prec.,
mm/h
press.,
hPa
HPBL,
m
3 march, wed
wed300:00−4nw4128938 0.1 1007579
03:00−6nw5139033 0.1 1009547
06:00−7nw5129297 0.0 1010521
09:00−6nw5128799 0.1 1012792
12:00−3wnw598279 0.0 1011851
15:00−1w599089 0.1 1010920
18:00−2w41193100 0.3 1007822
21:00−2w41193100 0.4 1006830
4 march, thu
thu400:00−2wsw41194100 0.2 1003769
03:00−2wsw61394100 0.5 1001854
06:00−1wsw3998100 1.3 997535
09:00−1wnw61184100 2.0 9971275
12:00−1wnw598011 0.0 998986
15:00−3nw478355 0.1 999780
18:00−5nw2491100 0.1 99994
21:00−7nnw2792100 0.1 1001178
5 march, fri
fri500:00−9n2296100 0.0 100230
03:00−10n239697 0.0 100364
06:00−13n239535 0.0 100562
09:00−11nnw249017 0.0 1006215
12:00−6nnw23740 0.0 1007540
15:00−5wnw126930 0.0 1009866
18:00−8wsw239193 0.0 100934
21:00−11wsw239447 0.0 101143
6 march, sat
sat600:00−11wsw239641 0.0 101263
03:00−12nw269646 0.0 1013180
06:00−15nw389426 0.0 1014243
09:00−14nw249123 0.0 1015250
12:00−9nw257619 0.0 1015627
15:00−8w467643 0.0 1014919
18:00−10wsw3790100 0.0 1013177
21:00−13sw389150 0.0 1012170
7 march, sun
sun700:00−12ssw399552 0.0 1010243
03:00−11ssw5129071 0.0 1007412
06:00−9ssw61586100 0.0 1002787
09:00−7ssw71491100 0.7 998994
12:00−4ssw81491100 0.8 9931103
15:00−3ssw71493100 3.0 9881127
18:00−5wnw41192100 2.8 988880
21:00−10sw3118567 2.9 990299